Temperature
13 13 12 12 12 12 12 12 12 11 11 11 11 11 11 11 11 11 10 10 10 10 10 10 10 10 10 10 10 10 11 11 11 11 11 11 11 11 11 11 11 11 11
13 12 12 12 12 12 11 11 11 11 11 11 11 11 10 10 10 10 10 10 10 10 10 10 10 10 10 10 10 10 10 10 10 10 10 10 10 10 10 10 10 10 10
12 12 12 11 11 11 11 11 11 11 11 11 11 10 10 10 10 10 10 9 9 9 10 10 9 9 9 10 10 10 10 9 10 10 10 10 10 10 10 10 10 10 10
12 12 11 11 11 11 11 11 11 11 10 10 10 10 10 10 10 10 9 9 9 9 9 9 9 9 9 9 9 9 9 9 9 9 9 9 9 9 9 9 9 9 9
12 11 11 11 11 11 11 10 10 10 10 10 10 10 10 10 9 9 9 9 9 9 8 9 9 9 9 9 9 9 9 9 9 9 9 9 9 9 9 9 9 9 9
11 11 11 11 11 10 10 10 10 10 10 10 10 10 10 9 9 9 9 9 8 8 8 8 8 8 8 8 8 8 8 8 8 9 8 8 8 8 8 8 8 8 9
11 11 11 10 10 10 10 10 10 10 9 9 9 9 9 9 9 8 8 8 8 8 8 8 8 8 7 8 8 8 8 8 8 8 8 8 8 8 8 8 8 8 8
11 11 11 10 10 10 9 9 9 9 9 9 8 8 8 8 8 8 8 8 8 8 7 7 7 7 7 7 7 7 7 7 8 8 8 8 8 8 8 8 8 8 8
11 11 10 10 10 10 9 9 9 9 8 8 8 7 7 7 7 7 7 7 7 7 7 7 7 7 7 7 7 7 7 7 7 7 7 7 7 7 7 7 8 8 8
10 10 10 10 9 9 9 9 9 8 8 8 7 7 7 7 6 6 7 7 7 7 7 7 6 6 6 6 6 6 6 7 7 7 7 7 7 7 7 7 7 7 7
10 10 10 9 9 9 9 9 8 8 8 7 7 7 6 6 6 6 6 6 6 6 6 6 6 6 6 6 6 6 6 6 6 7 7 7 7 7 7 7 7 7 7
9 9 9 9 9 9 8 8 8 8 8 7 7 7 6 6 6 6 6 5 5 6 6 6 6 6 6 6 6 6 6 6 6 6 6 6 6 6 6 6 6 6 6
9 9 9 9 9 8 8 8 8 7 7 7 7 7 6 6 6 6 5 5 5 5 5 5 5 5 5 5 5 5 5 6 6 6 6 6 6 6 6 6 6 6 6
8 8 8 8 8 8 8 8 7 7 7 7 7 6 6 6 5 5 5 5 5 4 5 5 5 5 5 5 5 5 5 5 5 6 6 6 5 5 5 5 5 5 5
8 8 8 8 8 8 8 7 7 7 7 7 6 6 6 6 5 5 5 5 4 4 4 4 5 5 5 5 5 5 5 5 5 5 5 5 5 5 5 5 5 5 5
7 7 8 8 8 8 7 7 7 6 6 6 6 6 6 6 5 5 5 5 4 4 4 4 5 5 5 5 5 5 5 5 5 5 5 5 5 5 5 5 5 5 5
7 7 7 7 7 7 7 7 7 6 6 6 6 6 6 5 5 5 5 5 4 4 4 4 4 4 4 4 4 4 4 5 5 4 4 4 4 4 4 4 4 4 4
6 7 7 7 7 7 7 7 6 6 6 6 6 6 5 5 5 5 5 4 4 4 4 4 4 4 4 4 4 4 4 4 4 4 4 4 4 4 4 4 4 4 4
6 6 6 6 6 6 6 6 6 6 6 6 5 5 5 5 5 4 4 4 4 4 4 4 4 4 4 4 4 4 4 4 4 4 4 4 4 4 4 4 4 4 4
5 6 6 6 6 6 6 6 5 5 5 5 5 5 5 4 4 4 4 4 4 4 4 4 4 4 4 3 3 3 3 3 3 3 3 3 3 3 3 3 3 3 3
5 5 5 5 5 5 5 5 5 5 5 5 4 4 4 4 4 4 4 4 4 4 4 3 4 3 3 3 3 3 3 3 3 3 3 3 3 3 3 3 3 3 3
4 5 5 5 5 5 5 5 5 4 4 4 4 4 4 4 4 4 4 4 4 3 3 3 3 3 3 3 3 3 3 3 3 3 2 3 3 3 3 3 3 3 3
4 4 4 4 4 4 4 4 4 4 4 4 4 3 3 3 3 3 3 3 3 3 3 3 3 3 3 3 3 3 2 2 2 2 2 2 3 3 3 3 2 2 2
3 4 4 4 4 4 4 4 4 4 4 3 3 3 3 3 3 3 3 3 3 3 3 3 3 3 3 3 2 2 2 2 2 2 1 1 2 2 2 2 2 2 2
3 3 3 3 3 3 3 3 3 3 3 3 3 3 3 3 3 3 3 3 3 3 3 2 2 2 2 2 2 2 2 2 2 2 1 1 1 2 2 2 2 2 2
2 2 3 3 3 3 3 3 3 3 3 3 3 3 2 2 3 3 3 3 2 2 2 2 2 2 2 2 2 2 1 1 1 1 1 1 1 1 1 2 2 2 2
Wind_Speed
2 2 2 2 1 1 1 1 1 1 1 2 2 3 3 2 2 3 2 1 1 3 5 6 7 8 8 9 9 9 9 9 10 10 10 10 10 10 9 10 10 10 10
2 1 1 2 1 1 1 1 1 1 1 1 2 2 2 2 2 2 2 1 1 3 5 6 7 9 9 10 9 9 9 10 10 10 11 11 11 11 10 10 10 10 10
2 1 1 1 1 1 1 1 1 2 2 2 2 2 2 2 2 2 2 1 1 2 4 6 8 9 10 10 10 10 10 10 10 10 11 11 12 12 12 10 10 10 10
3 2 1 1 1 2 2 1 1 1 1 2 2 2 2 1 2 2 2 3 2 2 4 6 8 9 10 10 11 11 10 11 11 11 12 12 12 12 12 11 10 10 10
3 2 1 1 2 2 1 1 1 1 1 2 2 2 2 2 1 2 2 2 2 2 3 5 7 8 10 11 12 12 12 12 12 12 12 12 12 12 12 11 10 11 11
2 2 1 1 2 1 0 1 1 2 1 1 2 3 3 2 1 1 2 2 3 4 4 4 5 6 9 11 12 13 13 13 12 12 12 12 12 12 12 11 11 11 12
2 2 1 1 1 1 0 1 1 1 1 1 2 2 3 2 1 1 1 2 3 4 4 4 4 4 6 9 11 13 13 13 12 12 12 12 12 12 12 11 11 11 12
2 1 1 1 1 1 1 1 1 1 1 2 1 1 2 3 3 3 2 2 2 3 3 5 5 5 5 5 8 12 13 13 13 12 12 12 12 11 12 12 12 12 11
2 2 1 1 1 1 1 1 1 1 0 2 1 0 1 2 4 3 2 2 3 3 3 3 4 5 6 6 7 9 12 13 12 12 11 11 11 12 12 13 12 12 11
2 2 1 1 1 1 1 1 1 0 1 1 1 1 1 1 1 3 3 3 3 3 4 4 4 4 6 5 7 9 11 12 13 12 12 11 12 12 13 13 12 12 11
2 2 2 1 1 1 2 2 1 1 1 1 1 1 1 1 1 2 4 4 4 3 3 3 2 3 5 5 5 8 11 12 13 12 11 12 12 12 13 12 12 12 11
1 1 1 1 0 1 2 2 2 1 1 1 1 1 1 1 2 2 3 4 4 4 4 3 2 2 4 5 6 10 11 12 12 12 11 11 11 11 12 12 12 12 12
1 1 0 0 0 0 0 1 1 2 2 2 2 1 1 1 1 2 2 4 4 4 3 3 3 2 4 5 6 11 11 12 12 12 11 10 10 10 10 11 12 12 13
1 1 1 0 0 1 0 0 1 2 2 2 2 2 1 1 1 1 1 2 4 3 3 3 3 2 3 5 7 10 8 11 12 12 11 10 10 11 11 11 12 12 12
0 1 1 1 0 0 0 1 2 2 2 2 2 2 1 1 1 1 1 1 2 4 5 3 3 3 4 5 8 8 7 10 12 12 11 10 11 11 11 12 12 13 13
0 1 1 1 1 1 1 1 2 2 2 2 1 2 1 1 1 1 1 2 2 2 4 3 3 4 4 5 8 8 7 11 12 11 11 11 11 11 12 12 13 13 12
0 1 1 0 1 1 1 1 1 2 2 2 1 2 2 1 1 2 2 2 2 2 4 4 3 3 4 5 5 6 7 6 8 11 12 12 12 12 12 12 12 13 12
0 1 1 1 0 1 1 1 2 1 2 2 2 2 2 2 2 2 2 2 2 2 2 5 4 3 4 4 4 5 5 6 6 9 11 12 12 12 12 13 13 13 13
1 0 1 1 1 1 1 1 1 2 2 3 3 2 2 2 3 2 2 2 2 2 2 2 4 3 3 3 4 5 5 4 6 8 10 11 12 13 13 13 13 14 13
1 0 1 1 1 1 1 1 1 1 2 2 2 2 2 2 3 3 2 3 2 2 2 1 3 3 3 3 3 4 5 5 5 6 8 9 11 12 13 13 13 14 14
1 1 0 0 0 1 1 1 1 1 2 2 2 2 2 2 2 2 2 2 2 2 1 1 2 3 3 3 4 3 5 5 5 4 5 6 6 6 8 10 11 13 14
2 1 1 0 1 1 2 2 2 1 1 1 2 2 1 1 2 2 3 3 3 2 2 1 2 3 4 3 3 4 4 5 4 4 5 6 5 5 6 6 10 13 14
2 1 1 1 1 2 2 2 2 1 1 1 1 1 2 2 2 1 2 3 3 4 3 2 2 3 3 3 3 3 4 4 4 4 5 5 5 5 6 7 11 13 14
1 1 1 1 1 2 2 2 3 1 1 1 1 1 1 2 2 1 1 2 2 3 3 2 1 2 2 2 1 2 3 3 3 3 3 3 4 5 7 6 9 12 14
2 1 1 1 1 1 2 2 2 1 1 1 1 1 1 1 2 1 1 1 2 3 4 5 4 4 4 4 4 3 3 3 4 3 3 2 3 5 5 4 7 11 14
2 1 1 1 1 1 1 2 2 1 1 1 1 1 1 2 2 1 1 1 1 2 2 3 4 5 4 4 6 3 1 2 3 2 3 3 3 4 4 3 4 7 10
Wind_Direction
124 117 122 110 92 48 34 308 312 18 3 358 351 12 27 30 23 42 72 60 16 349 340 338 336 333 328 324 321 320 319 319 319 317 316 313 305 299 293 287 284 282 280
111 114 108 109 84 33 4 345 347 20 352 7 357 15 26 17 26 41 60 44 13 344 334 335 335 332 329 327 326 325 323 321 321 318 318 316 315 306 299 293 286 283 281
111 106 112 101 70 34 33 16 27 32 11 7 351 355 12 20 16 17 14 25 21 335 323 326 328 327 327 326 326 325 323 322 320 319 317 317 315 312 299 295 293 286 283
101 78 88 86 65 55 43 40 44 37 7 356 345 333 354 4 353 1 3 2 5 352 332 321 321 325 326 326 324 323 322 319 317 315 314 313 313 312 306 298 295 295 291
107 84 86 63 65 63 48 24 27 28 8 357 341 339 333 329 321 344 351 354 348 344 341 333 331 328 326 327 327 324 323 320 318 317 315 312 311 312 309 301 297 291 290
106 85 89 94 87 85 48 44 34 18 9 350 344 335 311 293 317 329 359 3 346 344 345 344 338 330 328 328 329 328 326 322 318 317 314 311 310 309 307 301 297 296 292
114 98 71 96 105 139 144 90 86 44 7 7 9 339 319 301 342 338 3 347 347 348 343 339 332 332 332 330 330 328 326 324 321 317 314 311 308 308 308 304 301 301 298
92 105 98 125 101 110 73 65 70 64 1 15 14 351 342 334 342 322 329 330 339 343 344 340 339 340 341 338 332 330 330 325 324 320 318 315 313 309 310 307 304 303 304
84 87 95 126 125 139 148 168 144 92 228 322 355 60 14 305 323 316 327 344 341 336 332 339 339 349 346 340 335 337 337 332 330 328 325 320 316 313 312 311 304 304 306
89 88 110 111 138 148 161 183 175 201 171 236 306 334 290 286 315 312 320 330 334 331 330 334 337 339 337 340 338 338 335 334 332 328 324 322 319 317 314 314 310 305 304
104 86 87 92 158 176 176 181 206 215 193 212 247 318 318 313 279 278 300 317 323 319 327 323 327 333 330 333 334 336 336 335 333 329 326 325 323 323 320 319 319 316 313
135 81 65 76 95 189 193 193 195 208 223 239 263 285 288 291 297 293 296 309 310 312 320 325 326 324 330 334 339 340 340 339 338 334 328 328 328 330 330 330 331 330 327
166 194 112 129 157 326 215 172 195 215 217 232 249 270 286 290 299 305 299 304 310 309 311 317 313 327 335 339 339 336 338 338 341 338 334 334 340 340 339 338 335 332 329
186 189 147 115 39 348 336 229 210 218 210 229 258 270 282 286 296 284 277 307 315 311 309 295 308 320 339 338 332 333 334 339 341 340 343 348 347 343 340 338 336 335 334
118 79 150 163 163 226 232 204 220 211 203 218 231 240 263 275 274 290 286 273 283 301 304 293 315 322 340 343 338 336 338 346 351 350 349 349 347 345 343 342 341 339 336
44 132 127 160 164 176 199 199 223 209 213 226 224 241 267 287 289 283 274 275 265 273 290 299 305 316 328 335 337 344 345 347 351 350 352 349 348 347 345 345 341 339 339
115 157 155 178 183 195 219 221 236 217 216 227 237 246 259 278 281 277 275 277 279 274 286 304 313 322 326 332 337 345 347 345 347 350 355 355 352 349 347 348 346 345 342
109 159 142 134 193 218 216 221 246 264 226 221 227 231 250 260 270 275 270 269 275 271 275 300 313 321 319 325 336 342 348 349 349 346 353 355 355 356 355 353 353 351 348
16 65 135 164 201 235 230 244 246 256 251 227 220 224 241 246 260 277 281 286 288 297 292 288 307 316 321 331 342 339 337 339 344 342 349 351 351 352 353 354 354 353 351
360 315 202 190 194 210 246 280 275 262 263 254 231 226 236 243 252 264 275 283 294 299 306 300 312 319 322 323 340 336 334 337 338 340 345 344 345 348 349 349 350 350 350
338 324 346 169 202 204 254 307 300 282 258 271 254 232 239 264 292 295 295 295 301 300 305 308 309 322 327 330 323 318 323 327 330 340 339 336 337 340 342 343 346 348 348
337 343 338 312 310 284 303 334 339 286 280 266 266 248 255 254 293 315 328 333 325 288 271 283 311 304 303 308 315 322 327 334 327 338 339 324 330 327 332 337 341 346 347
331 329 327 314 288 302 318 324 333 311 278 279 281 266 275 293 301 281 334 350 342 337 323 275 267 285 292 299 305 313 321 326 313 320 336 316 322 320 320 330 337 343 347
307 306 309 316 320 313 326 327 340 328 291 296 298 291 276 283 278 316 351 352 349 346 334 343 278 288 309 313 295 291 306 331 328 337 353 320 319 318 319 319 333 345 349
300 294 299 308 306 285 305 329 357 319 326 324 320 314 319 294 327 36 80 350 345 346 11 20 14 18 15 22 33 29 8 360 339 329 356 345 321 321 313 307 331 345 347
284 299 308 304 294 281 307 336 3 320 317 326 331 340 14 1 341 53 177 197 277 319 2 14 23 26 34 37 35 39 3 343 336 322 337 347 326 339 327 308 320 337 343
Height
1524 1525 1525 1525 1525 1525 1525 1525 1525 1525 1525 1525 1525 1524 1524 1523 1523 1523 1522 1521 1520 1519 1518 1517 1516 1515 1514 1512 1511 1510 1509 1508 1507 1507 1506 1505 1504 1503 1503 1502 1502 1502 1501
1523 1523 1524 1524 1524 1524 1524 1524 1524 1524 1524 1524 1523 1523 1522 1522 1522 1521 1520 1520 1519 1518 1516 1515 1514 1513 1511 1510 1509 1508 1506 1505 1504 1503 1502 1501 1500 1500 1499 1498 1497 1497 1497
1522 1522 1522 1523 1523 1523 1523 1523 1523 1523 1523 1523 1522 1522 1521 1521 1521 1520 1519 1518 1517 1516 1515 1514 1512 1511 1510 1508 1507 1505 1504 1502 1501 1500 1499 1498 1497 1496 1495 1494 1493 1493 1493
1520 1521 1521 1521 1522 1522 1522 1522 1522 1522 1521 1521 1521 1520 1520 1520 1519 1518 1518 1517 1516 1514 1513 1512 1511 1509 1508 1506 1504 1503 1501 1500 1498 1497 1495 1494 1493 1492 1491 1490 1490 1489 1488
1519 1519 1519 1520 1520 1520 1520 1521 1520 1520 1520 1520 1519 1519 1518 1518 1518 1517 1516 1515 1514 1513 1512 1510 1509 1507 1505 1504 1502 1500 1499 1497 1495 1493 1492 1491 1489 1488 1487 1486 1486 1485 1484
1517 1517 1518 1518 1519 1519 1519 1519 1519 1519 1519 1518 1518 1517 1517 1517 1516 1516 1515 1514 1513 1511 1510 1508 1507 1505 1503 1501 1499 1498 1496 1494 1492 1490 1488 1487 1485 1484 1483 1482 1482 1481 1480
1516 1516 1516 1517 1517 1517 1517 1517 1517 1517 1517 1516 1516 1515 1515 1515 1515 1514 1513 1512 1511 1510 1508 1506 1505 1503 1501 1499 1497 1495 1493 1491 1489 1487 1485 1483 1482 1480 1479 1478 1477 1477 1476
1514 1514 1514 1514 1515 1515 1515 1516 1516 1515 1515 1515 1515 1513 1513 1514 1513 1512 1512 1510 1509 1508 1506 1505 1503 1501 1499 1497 1494 1492 1490 1487 1485 1483 1481 1479 1478 1477 1476 1474 1473 1473 1472
1511 1512 1512 1512 1513 1513 1513 1514 1514 1514 1514 1515 1515 1515 1514 1512 1511 1511 1510 1509 1508 1506 1504 1502 1501 1499 1496 1494 1492 1489 1487 1484 1482 1480 1478 1476 1474 1473 1472 1471 1469 1468 1468
1509 1510 1510 1510 1511 1511 1511 1512 1512 1513 1513 1513 1513 1513 1514 1513 1511 1509 1508 1507 1506 1504 1502 1500 1498 1496 1494 1492 1489 1487 1485 1482 1480 1477 1475 1473 1471 1470 1468 1467 1466 1465 1464
1507 1507 1508 1508 1509 1509 1509 1510 1510 1511 1511 1511 1511 1511 1511 1511 1510 1509 1505 1504 1503 1502 1500 1498 1496 1494 1492 1490 1487 1485 1483 1480 1477 1475 1473 1471 1469 1467 1465 1464 1462 1461 1460
1504 1505 1506 1506 1507 1507 1507 1508 1508 1509 1509 1509 1509 1509 1509 1508 1507 1507 1505 1502 1500 1499 1498 1496 1494 1492 1490 1488 1486 1483 1480 1477 1474 1472 1470 1468 1466 1464 1462 1461 1459 1458 1456
1501 1502 1503 1504 1504 1505 1505 1506 1506 1506 1507 1507 1507 1507 1507 1507 1506 1505 1503 1501 1499 1497 1495 1494 1492 1490 1488 1486 1483 1481 1478 1475 1472 1469 1467 1465 1463 1462 1460 1458 1456 1454 1453
1499 1500 1501 1501 1502 1503 1503 1503 1504 1504 1504 1504 1504 1504 1504 1504 1503 1503 1502 1500 1496 1494 1493 1491 1490 1488 1486 1484 1481 1479 1476 1473 1470 1468 1465 1463 1461 1460 1458 1456 1454 1452 1450
1496 1497 1498 1499 1499 1500 1500 1501 1501 1501 1501 1502 1502 1502 1501 1501 1501 1500 1499 1498 1497 1493 1490 1489 1487 1486 1484 1482 1479 1477 1474 1471 1469 1466 1464 1462 1460 1457 1455 1453 1451 1449 1447
1494 1494 1495 1496 1496 1497 1497 1498 1498 1499 1499 1499 1499 1499 1498 1498 1498 1497 1497 1496 1495 1493 1489 1487 1486 1484 1482 1480 1478 1475 1472 1470 1467 1464 1462 1460 1458 1455 1453 1451 1449 1446 1444
1491 1491 1492 1493 1493 1494 1494 1495 1495 1495 1496 1496 1496 1496 1495 1495 1495 1494 1494 1493 1492 1491 1488 1485 1484 1482 1480 1478 1476 1473 1471 1468 1466 1463 1461 1458 1456 1453 1451 1448 1446 1443 1441
1488 1489 1489 1490 1490 1491 1491 1492 1492 1492 1492 1493 1493 1493 1492 1492 1492 1491 1491 1490 1489 1488 1486 1483 1481 1480 1478 1476 1474 1472 1469 1467 1465 1462 1459 1457 1454 1451 1449 1446 1443 1441 1438
1485 1486 1486 1487 1487 1488 1488 1489 1489 1490 1490 1489 1490 1489 1489 1489 1488 1488 1488 1487 1486 1486 1484 1482 1479 1477 1476 1474 1472 1470 1468 1465 1463 1461 1458 1455 1453 1450 1447 1444 1441 1438 1435
1483 1483 1484 1484 1485 1485 1485 1486 1486 1486 1486 1487 1487 1486 1486 1486 1485 1485 1485 1484 1484 1482 1481 1479 1477 1475 1474 1472 1470 1467 1465 1463 1461 1459 1456 1454 1451 1448 1445 1442 1440 1436 1433
1480 1481 1481 1482 1482 1482 1483 1483 1483 1483 1483 1483 1483 1483 1483 1483 1483 1483 1482 1481 1481 1479 1478 1476 1475 1473 1471 1470 1468 1466 1464 1461 1459 1457 1454 1451 1449 1446 1443 1440 1437 1434 1431
1478 1478 1478 1479 1479 1480 1480 1480 1481 1480 1480 1480 1480 1480 1480 1480 1480 1480 1479 1479 1478 1477 1475 1474 1473 1471 1470 1469 1467 1465 1463 1460 1456 1455 1452 1450 1448 1445 1442 1439 1436 1433 1429
1475 1475 1476 1476 1476 1477 1477 1477 1477 1477 1477 1477 1477 1477 1477 1477 1477 1477 1476 1476 1475 1474 1474 1473 1471 1470 1469 1468 1466 1464 1462 1460 1457 1455 1452 1448 1446 1443 1441 1438 1435 1431 1428
1472 1473 1473 1473 1474 1474 1474 1474 1474 1474 1474 1474 1474 1474 1474 1474 1474 1474 1473 1472 1472 1471 1471 1471 1470 1469 1468 1467 1465 1464 1461 1459 1457 1455 1452 1448 1444 1442 1439 1436 1433 1430 1426
1470 1470 1471 1471 1471 1471 1471 1471 1471 1471 1471 1471 1471 1471 1471 1471 1472 1471 1471 1470 1469 1468 1468 1468 1468 1467 1466 1465 1464 1462 1459 1457 1454 1452 1451 1448 1444 1440 1437 1435 1432 1429 1425
1468 1468 1468 1468 1469 1469 1469 1468 1468 1468 1468 1468 1468 1468 1468 1469 1469 1468 1468 1467 1466 1465 1466 1465 1465 1465 1464 1463 1462 1460 1458 1456 1454 1451 1450 1447 1444 1441 1436 1433 1431 1428 1424